Overview Statistics Trail Chart Weather Telemetry Raw packets
 

This is the latest recevied weather packets stored in our database for station/object OM8AGG-15. If no packets are shown the sender has not sent any weather packets the latest 10 day(s).

<< 2 3 4 5 6 7 8 >>
Time Temp. Humidity Pressure Rain* Wind** Luminosity Snow
1788512624 20° C 56% 1018.5 hPa - - - -
1788511724 19.44° C 58% 1018.6 hPa - - - -
1788510823 19.44° C 60% 1018.7 hPa - - - -
1788509922 20° C 60% 1018.7 hPa - - - -
1788509022 18.89° C 62% 1018.6 hPa - - - -
1788508122 18.33° C 64% 1018.3 hPa - - - -
1788507221 17.22° C 69% 1018.3 hPa - - - -
1788506321 17.22° C 70% 1018.1 hPa - - - -
1788505519 16.11° C 72% 1018.1 hPa - - - -
1788505421 16.11° C 72% 1018.1 hPa - - - -
1788504521 16.67° C 71% 1018.2 hPa - - - -
1788503621 17.78° C 67% 1018.1 hPa - - - -
1788502721 17.22° C 69% 1018 hPa - - - -
1788501820 16.67° C 74% 1018 hPa - - - -
1788500920 14.44° C 82% 1017.9 hPa - - - -
1788500020 13.89° C 87% 1017.9 hPa - - - -
1788499119 13.33° C 89% 1017.7 hPa - - - -
1788498219 12.78° C 90% 1017.9 hPa - - - -
1788497319 12.78° C 95% 1017.8 hPa - - - -
1788496418 11.67° C 97% 1018 hPa - - - -
1788495517 11.67° C 97% 1018.1 hPa - - - -
1788494617 11.67° C 97% 1017.8 hPa - - - -
1788493821 12.22° C 96% 1018 hPa - - - -
1788493716 12.22° C 96% 1018 hPa - - - -
1788492815 12.22° C 95% 1018.1 hPa - - - -

* Rain since midnight (hover to see other rain measurements)
** Current wind speed in m/s (hover to see current wind gust speed)